Location: Briis
(48.6240°N, 2.1211°E)
Time: 07:02:54
(UTC+00:00)

USA 308 - Pass Details

Date: 25 September 2020
Orbit: 569 x 581 km, 54.0° (Epoch: 19 October)

Event Time Altitude Azimuth Distance (km) Brightness Sun altitude
Exits shadow 03:12:09 43° 348° (NNW) 812 3.7 -24.7°
Maximum altitude 03:12:13 43° 351° (N) 812 3.7 -24.7°
Drops below altitude 10° 03:16:17 10° 63° (ENE) 1,875 6.6 -24.1°
Sets 03:18:38 0° 71° (ENE) 2,774 7.8 -23.8°
